Location: Gleizolles
(44.4833°N, 6.7667°E)
Time: 14:21:17
(UTC+00:00)

deb Explorer IX - Pass Details

Date: 02 July 2024
Orbit: 510 x 878 km, 38.7° (Epoch: 21 July)

Event Time Altitude Azimuth Distance (km) Brightness Sun altitude
Rises 05:05:54 0° 248° (WSW) 2,603 ? 10.6°
Reaches altitude 10° 05:08:13 10° 239° (WSW) 1,722 ? 11.0°
Maximum altitude 05:11:46 34° 173° (S) 864 ? 11.6°
Drops below altitude 10° 05:15:29 10° 107° (ESE) 1,797 ? 12.2°
Sets 05:17:56 0° 99° (E) 2,737 ? 12.6°
